|
Cosmos 1939 Rocket - Orbit
|
Hauppauge;
12:28:04
| Home | Info | Passes |
|
View from above orbital plane
|
View from above satellite
|
Ground track
|
The orbit data is extracted from the following two-line orbital elements,
1 19046U 88032B 13138.14911915 .00001884 00000-0 16243-3 0 5343
2 19046 097.7042 193.6661 0034945 347.8691 012.1686 14.98079378349035
| Epoch (UTC): | 18 May 2013 03:34:43 |
| Eccentricity: | 0.0034945 |
| inclination: | 97.7042° |
| perigee height: | 548 km |
| apogee height: | 597 km |
| right ascension of ascending node: | 193.6661° |
| argument of perigee: | 347.8691° |
| revolutions per day: | 14.98079378 |
| mean anomaly at epoch: | 12.1686° |
| orbit number at epoch: | 34903 |
The dashed part of the orbit path shows where the satellite is in the earth's shadow,
|
|